map of ESB home
Great Circle Mapper logo
ESB - Airport
Location
City:  Ankara, Turkey
Name:Esenboga International Airport
ICAO / IATA:LTAC / ESB

Details
Type:Airport (Aerodrome, Airfield)
Use:Public/Civil, International (customs port of entry)
Latitude:4007'41"N (40.128056)
Longitude:3259'42"E (32.995000)
Elevation:3125 ft (953 m)
Variation:5.47E (WMM2015 magnetic declination)
0.09 annual change
Runways:2
Longest:12303 × 197 ft (3750 × 60 m), paved

Time
Time Zone:UTC+2 (DST+3)
Local Time:

Weather
METAR:LTAC 222250Z 08007KT 9999 SCT040 15/11 Q1014 NOSIG
TAF:LTAC 221040Z 2212/2312 VRB02KT 9999 SCT040
TEMPO 2214/2218 35012KT -TSRA FEW025CB BKN030
BECMG 2219/2221 CAVOK
BECMG 2304/2306 SCT040= TAF LTAF 221040Z 2212/2312 18009KT 9999 SCT035

Related Locations
Nearby:
Farthest:NTAV: 11310 mi / 18202 km
Raivavae, Tubuai Islands, Austral Islands, PF

Find:

   beyond  
but within

Other Information
Maps:
NOTAMs:
Links:
Sources:

  
flag of Turkey   

Sectional Chart

Flight Planning
at skyvector.com

Satellite Image

Google Maps Satellite View

 

Copyright © 2004-2015 Karl L. Swartz. All rights reserved.
The Great Circle Mapper name and logo are trademarks of the Great Circle Mapper.
All other trademarks mentioned herein belong to their respective owners.
Please see credits for attibutions and further copyright information.

  Follow gcmap on Facebook Follow gcmap on Twitter Follow gcmap on Google+

hCard Microformat

Geo Microformat